Lago Vista, TX

10:13 PM CDT on April 22, 2018 (GMT -0500)
Lago Vista

Weather History for KRYW - October, 2012

Change the Weather History Date:

Friday, October 26, 2012

  Actual Average (KGTU) Record (KGTU)
Temperature  
Mean Temperature 55 °F -  
Max Temperature 60 °F 74 °F 87 °F (2006)
Min Temperature 50 °F 56 °F 35 °F (2005)
Degree Days  
Heating Degree Days 10    
Growing Degree Days 5 (Base 50)    
Moisture  
Dew Point 40 °F    
Average Humidity 60    
Maximum Humidity 71    
Minimum Humidity 50    
Precipitation  
Precipitation 0.00 in - - ()
Sea Level Pressure  
Sea Level Pressure 30.17 in    
Wind  
Wind Speed 10 mph (North)    
Max Wind Speed 16 mph    
Max Gust Speed 28 mph    
Visibility 10 miles    
Events Rain , Thunderstorm    
Averages and records for this station are not official NWS values.
T = Trace of Precipitation, MM = Missing Value Source: NWS Daily Summary

Daily Weather History Graph

Daily Weather History Graph

Search for Another Location

Airport or City:

Astronomy

Oct. 26, 2012 Rise Set
Actual Time 7:42 AM CDT 6:48 PM CDT
Civil Twilight 7:17 AM CDT 7:13 PM CDT
Nautical Twilight 6:49 AM CDT 7:41 PM CDT
Astronomical Twilight 6:21 AM CDT 8:09 PM CDT
Moon 4:57 PM CDT (10/26) 4:50 AM CDT (10/26)
Length of Visible Light 11h 55m
Length of Day
11h 06m
Waxing Gibbous, 91% of the Moon is Illuminated
Oct 26
Waxing Gibbous
Oct 29
Full
Nov 6
Last Quarter
Nov 13
New
Nov 20
First Quarter

Hourly Weather History & Observations

Time (CDT) Temp. Dew Point Humidity Pressure Visibility Wind Dir Wind Speed Gust Speed Precip Events Conditions
12:35 AM 60.8 °F 46.4 °F 59% 30.05 in 10.0 mi North 9.2 mph 17.3 mph N/A   Overcast
12:55 AM 60.8 °F 44.6 °F 55% 30.05 in 10.0 mi North 6.9 mph - N/A   Overcast
1:15 AM 60.8 °F 44.6 °F 55% 30.05 in 10.0 mi North 9.2 mph 16.1 mph N/A   Overcast
1:35 AM 59.0 °F 44.6 °F 59% 30.06 in 10.0 mi North 10.4 mph 19.6 mph N/A   Overcast
1:55 AM 59.0 °F 44.6 °F 59% 30.06 in 10.0 mi North 8.1 mph 16.1 mph N/A   Overcast
2:15 AM 59.0 °F 44.6 °F 59% 30.07 in 10.0 mi North 10.4 mph 16.1 mph N/A   Overcast
2:35 AM 59.0 °F 42.8 °F 55% 30.07 in 10.0 mi North 9.2 mph - N/A   Overcast
2:55 AM 59.0 °F 42.8 °F 55% 30.08 in 10.0 mi North 3.5 mph - N/A   Overcast
3:35 AM 59.0 °F 42.8 °F 55% 30.07 in 10.0 mi NNW 8.1 mph - N/A   Overcast
3:55 AM 59.0 °F 42.8 °F 55% 30.07 in 10.0 mi North 9.2 mph 17.3 mph N/A   Overcast
4:15 AM 57.2 °F 41.0 °F 55% 30.06 in 10.0 mi North 9.2 mph 17.3 mph N/A   Overcast
4:35 AM 57.2 °F 41.0 °F 55% 30.06 in 10.0 mi North 9.2 mph - N/A   Overcast
4:55 AM 55.4 °F 41.0 °F 58% 30.07 in 10.0 mi North 13.8 mph 20.7 mph N/A   Overcast
5:35 AM 55.4 °F 41.0 °F 58% 30.09 in 10.0 mi North 10.4 mph - N/A   Overcast
5:55 AM 55.4 °F 41.0 °F 58% 30.10 in 10.0 mi North 10.4 mph 17.3 mph N/A   Overcast
6:15 AM 55.4 °F 41.0 °F 58% 30.10 in 10.0 mi NNE 6.9 mph 19.6 mph N/A   Overcast
6:35 AM 53.6 °F 39.2 °F 58% 30.10 in 10.0 mi North 5.8 mph 19.6 mph N/A   Overcast
6:55 AM 53.6 °F 41.0 °F 62% 30.11 in 10.0 mi North 5.8 mph 17.3 mph N/A   Overcast
7:15 AM 53.6 °F 41.0 °F 62% 30.12 in 10.0 mi North 9.2 mph 17.3 mph N/A   Overcast
7:35 AM 53.6 °F 39.2 °F 58% 30.13 in 10.0 mi North 11.5 mph 23.0 mph N/A   Overcast
7:55 AM 51.8 °F 41.0 °F 67% 30.13 in 10.0 mi North 12.7 mph 25.3 mph N/A   Overcast
8:15 AM 51.8 °F 41.0 °F 67% 30.14 in 10.0 mi North 12.7 mph 19.6 mph N/A   Overcast
8:35 AM 51.8 °F 39.2 °F 62% 30.15 in 10.0 mi North 11.5 mph 23.0 mph N/A Thunderstorm Overcast
8:55 AM 51.8 °F 41.0 °F 67% 30.15 in 10.0 mi North 9.2 mph 19.6 mph N/A   Overcast
9:15 AM 51.8 °F 41.0 °F 67% 30.17 in 10.0 mi North 11.5 mph - N/A   Overcast
9:35 AM 50.0 °F 41.0 °F 71% 30.19 in 10.0 mi North 10.4 mph 16.1 mph N/A   Overcast
9:55 AM 50.0 °F 41.0 °F 71% 30.19 in 10.0 mi North 9.2 mph - N/A Thunderstorm Overcast
10:15 AM 50.0 °F 41.0 °F 71% 30.20 in 10.0 mi North 8.1 mph - N/A Thunderstorm Thunderstorm
10:35 AM 50.0 °F 41.0 °F 71% 30.20 in 10.0 mi North 10.4 mph 18.4 mph N/A Thunderstorm Overcast
10:55 AM 50.0 °F 39.2 °F 66% 30.24 in 10.0 mi NNW 11.5 mph 19.6 mph N/A   Overcast
11:15 AM 51.8 °F 39.2 °F 62% 30.21 in 10.0 mi North 11.5 mph 18.4 mph N/A   Overcast
11:35 AM 51.8 °F 39.2 °F 62% 30.20 in 10.0 mi North 10.4 mph 18.4 mph N/A Thunderstorm Overcast
11:55 AM 51.8 °F 39.2 °F 62% 30.22 in 10.0 mi NNW 8.1 mph 18.4 mph N/A   Overcast
12:15 PM 51.8 °F 39.2 °F 62% 30.21 in 10.0 mi North 9.2 mph 23.0 mph N/A   Overcast
12:35 PM 51.8 °F 39.2 °F 62% 30.21 in 10.0 mi North 12.7 mph 27.6 mph N/A   Overcast
12:55 PM 51.8 °F 39.2 °F 62% 30.22 in 10.0 mi North 12.7 mph 21.9 mph N/A   Overcast
1:15 PM 51.8 °F 41.0 °F 67% 30.22 in 10.0 mi NNW 9.2 mph 19.6 mph N/A Rain Light Rain
1:35 PM 51.8 °F 41.0 °F 67% 30.20 in 10.0 mi North 11.5 mph 23.0 mph N/A   Overcast
1:55 PM 51.8 °F 41.0 °F 67% 30.20 in 10.0 mi NNW 16.1 mph 27.6 mph N/A   Overcast
2:15 PM 51.8 °F 41.0 °F 67% 30.19 in 10.0 mi North 13.8 mph 24.2 mph N/A   Overcast
2:35 PM 51.8 °F 39.2 °F 62% 30.19 in 10.0 mi North 16.1 mph 24.2 mph N/A   Overcast
2:55 PM 51.8 °F 41.0 °F 67% 30.19 in 10.0 mi North 10.4 mph 24.2 mph N/A   Overcast
3:15 PM 51.8 °F 41.0 °F 67% 30.18 in 10.0 mi North 10.4 mph 21.9 mph N/A   Overcast
3:35 PM 51.8 °F 41.0 °F 67% 30.18 in 10.0 mi North 12.7 mph 19.6 mph N/A   Overcast
3:55 PM 51.8 °F 41.0 °F 67% 30.17 in 10.0 mi North 13.8 mph 20.7 mph N/A   Overcast
4:15 PM 53.6 °F 41.0 °F 62% 30.18 in 10.0 mi North 6.9 mph 23.0 mph N/A   Overcast
4:35 PM 53.6 °F 39.2 °F 58% 30.18 in 10.0 mi North 10.4 mph 23.0 mph N/A   Overcast
5:15 PM 53.6 °F 39.2 °F 58% 30.18 in 10.0 mi North 11.5 mph 18.4 mph N/A   Overcast
5:35 PM 55.4 °F 39.2 °F 54% 30.18 in 10.0 mi North 10.4 mph 20.7 mph N/A   Overcast
5:55 PM 53.6 °F 37.4 °F 54% 30.18 in 10.0 mi North 12.7 mph 25.3 mph N/A   Overcast
6:15 PM 53.6 °F 37.4 °F 54% 30.19 in 10.0 mi North 11.5 mph 24.2 mph N/A   Overcast
6:35 PM 53.6 °F 37.4 °F 54% 30.20 in 10.0 mi North 12.7 mph 23.0 mph N/A   Overcast
6:55 PM 53.6 °F 37.4 °F 54% 30.20 in 10.0 mi North 11.5 mph 20.7 mph N/A   Mostly Cloudy
7:15 PM 51.8 °F 37.4 °F 58% 30.21 in 10.0 mi NNE 6.9 mph 16.1 mph N/A   Overcast
7:35 PM 51.8 °F 37.4 °F 58% 30.22 in 10.0 mi North 10.4 mph 17.3 mph N/A   Overcast
7:55 PM 51.8 °F 37.4 °F 58% 30.23 in 10.0 mi North 4.6 mph - N/A   Overcast
8:15 PM 51.8 °F 37.4 °F 58% 30.24 in 10.0 mi NNE 8.1 mph - N/A   Overcast
8:35 PM 51.8 °F 37.4 °F 58% 30.24 in 10.0 mi North 8.1 mph - N/A   Mostly Cloudy
8:55 PM 51.8 °F 37.4 °F 58% 30.24 in 10.0 mi North 9.2 mph 19.6 mph N/A   Overcast
9:15 PM 51.8 °F 35.6 °F 54% 30.25 in 10.0 mi North 11.5 mph 18.4 mph N/A   Overcast
9:35 PM 51.8 °F 33.8 °F 50% 30.26 in 10.0 mi North 11.5 mph 21.9 mph N/A   Mostly Cloudy
9:55 PM 51.8 °F 33.8 °F 50% 30.27 in 10.0 mi NNE 9.2 mph 16.1 mph N/A   Overcast
10:35 PM 50.0 °F 35.6 °F 58% 30.28 in 10.0 mi North 5.8 mph - N/A   Mostly Cloudy
10:55 PM 50.0 °F 35.6 °F 58% 30.28 in 10.0 mi North 5.8 mph - N/A   Mostly Cloudy
11:15 PM 50.0 °F 33.8 °F 54% 30.28 in 10.0 mi North 6.9 mph - N/A   Mostly Cloudy
11:35 PM 50.0 °F 33.8 °F 54% 30.28 in 10.0 mi NNE 9.2 mph - N/A   Mostly Cloudy
11:55 PM 50.0 °F 32.0 °F 50% 30.28 in 10.0 mi North 8.1 mph 18.4 mph N/A   Mostly Cloudy